Change the Weather History Date:

Wednesday, January 22, 2014

  Actual Average Record
Temperature  
Mean Temperature 66 °F -  
Max Temperature 72 °F - - ()
Min Temperature 61 °F - - ()
Cooling Degree Days 2    
Growing Degree Days 16 (Base 50)    
Moisture  
Dew Point 55 °F    
Average Humidity 60    
Maximum Humidity 79    
Minimum Humidity 44    
Precipitation  
Precipitation 0.00 in - - ()
Sea Level Pressure  
Sea Level Pressure 30.09 in    
Wind  
Wind Speed 14 mph ()    
Max Wind Speed 20 mph    
Max Gust Speed -    
T = Trace of Precipitation, MM = Missing Value Source: Averaged Metar Reports

Daily Weather History Graph

Daily Weather History Graph

Search for Another Location

Airport or City:

Trip Planner

Search our weather history database for the weather conditions in past years. The results will help you decide how hot, cold, wet, or windy it might be!

Date:

Astronomy

Jan. 22, 2014 Rise Set
Actual Time 6:27 AM ACDT 8:33 PM ACDT
Civil Twilight 5:58 AM ACDT 9:01 PM ACDT
Nautical Twilight 5:24 AM ACDT 9:36 PM ACDT
Astronomical Twilight 4:46 AM ACDT 10:13 PM ACDT
Moon 11:37 PM ACDT 11:46 AM ACDT
Length of Visible Light 15h 02m
Length of Day
14h 05m
Waning Gibbous, 71% of the Moon is Illuminated
Jan 22
Waning Gibbous
Jan 24
Last Quarter
Jan 31
New
Feb 7
First Quarter
Feb 15
Full

Hourly Weather History & Observations

Time (ACDT) Temp. Dew Point Humidity Pressure Visibility Wind Dir Wind Speed Gust Speed Precip Events Conditions
12:00 AM 64 °F 54 °F 62% 30.07 in - SSE 18.4 mph - -  
12:30 AM 63 °F 53 °F 63% 30.06 in - SSE 19.6 mph - -  
2:30 AM 62 °F 53 °F 65% 30.06 in - SE 16.1 mph - -  
3:00 AM 62 °F 53 °F 65% 30.05 in - SE 15.0 mph - -  
3:30 AM 62 °F 53 °F 63% 30.05 in - SE 18.4 mph - -  
5:30 AM 63 °F 54 °F 65% 30.06 in - SE 19.6 mph - -  
6:00 AM 62 °F 54 °F 69% 30.08 in - SE 19.6 mph - -  
6:30 AM 63 °F 54 °F 65% 30.08 in - ESE 18.4 mph - -  
8:30 AM 63 °F 53 °F 60% 30.12 in - ESE 16.1 mph - -  
9:00 AM 64 °F 52 °F 55% 30.14 in - ESE 15.0 mph - -  
9:30 AM 64 °F 52 °F 55% 30.13 in - ESE 16.1 mph - -  
11:30 AM 68 °F 52 °F 46% 30.14 in - ESE 11.5 mph - -  
12:00 PM 67 °F 52 °F 48% 30.14 in - ESE 12.7 mph - -  
12:30 PM 70 °F 53 °F 44% 30.13 in - ESE 11.5 mph - -  
2:30 PM 70 °F 54 °F 46% 30.11 in - SE 8.1 mph - -  
3:00 PM 72 °F 55 °F 44% 30.10 in - SSE 9.2 mph - -  
3:30 PM 72 °F 58 °F 51% 30.10 in - SSE 15.0 mph - -  
5:30 PM 70 °F 58 °F 58% 30.07 in - SSE 17.3 mph - -  
6:00 PM 70 °F 59 °F 59% 30.07 in - SSE 16.1 mph - -  
6:30 PM 69 °F 58 °F 60% 30.07 in - SSE 17.3 mph - -  
8:30 PM 65 °F 59 °F 76% 30.09 in - SSE 17.3 mph - -  
9:30 PM 65 °F 59 °F 76% 30.10 in - SSE 15.0 mph - -  
11:30 PM 64 °F 59 °F 79% 30.09 in - SE 11.5 mph - -